Tracking 20040 objects as of 18-Nov-2019
Live streaming from Space Station
objects crossing your sky now

ABS 3

Track ABS 3 now!
ABS 3 is classified as:


NORAD ID: 24901
Int'l Code: 1997-042A
Perigee: 36,053.8 km
Apogee: 36,107.2 km
Inclination: 6.5 °
Period: 1,450.8 minutes
Semi major axis: 42451 km
RCS: 10 m2 (large)
Launch date: August 19, 1997
Source: People's Republic of China (PRC)
Launch site: Xichang Space Center, China (XSC)

Most powerful telecommunications satellite in service in the Asia-Pacific region; 30 C-band, 24 Ku-band transponders; 190 high fidelity channels and 50,000 simultaneous telephone links.
aabbcc
Your satellite tracking list
Your tracking list is empty




NASA's NSSDC Master Catalog

Two Line Element Set (TLE):
1 24901U 97042A   19321.83949189 -.00000038 +00000-0 +00000-0 0  9997
2 24901 006.4986 058.7366 0006290 203.8545 005.0583 00.99257595081371
Source of the keplerian elements: AFSPC